Weather History for KMFR - November, 2014

Change the Weather History Date:

Thursday, November 6, 2014

  Actual Average Record
Temperature  
Mean Temperature 54 °F 48 °F  
Max Temperature 62 °F 57 °F 77 °F (1999)
Min Temperature 46 °F 38 °F 19 °F (1971)
Degree Days  
Heating Degree Days 11 17  
Month to date heating degree days 77 99  
Since 1 July heating degree days 246 459  
Cooling Degree Days 0 0  
Month to date cooling degree days 0 0  
Year to date cooling degree days 1238 829  
Growing Degree Days 4 (Base 50)    
Moisture  
Dew Point 50 °F    
Average Humidity 86    
Maximum Humidity 100    
Minimum Humidity 72    
Precipitation  
Precipitation T in 0.09 in 1.27 in (2005)
Month to date precipitation 0.10 0.47  
Year to date precipitation 16.12 12.31  
Snow  
Snow 0.00 in 0.00 in - ()
Month to date snowfall 0.0 0.0  
Since 1 July snowfall 0.0 0.0  
Snow Depth 0.00 in    
Sea Level Pressure  
Sea Level Pressure 30.16 in    
Wind  
Wind Speed 2 mph (WNW)    
Max Wind Speed 8 mph    
Max Gust Speed -    
Visibility 5 miles    
Events Fog , Rain    
T = Trace of Precipitation, MM = Missing Value Source: NWS Daily Summary

Daily Weather History Graph

Daily Weather History Graph

Search for Another Location

Airport or City:

Trip Planner

Search our weather history database for the weather conditions in past years. The results will help you decide how hot, cold, wet, or windy it might be!

Date:

Astronomy

Nov. 06, 2014 Rise Set
Actual Time 6:51 AM PST 4:58 PM PST
Civil Twilight 6:21 AM PST 5:28 PM PST
Nautical Twilight 5:48 AM PST 6:01 PM PST
Astronomical Twilight 5:15 AM PST 6:34 PM PST
Moon 5:10 PM PST (11/6) 6:28 AM PST (11/6)
Length of Visible Light 11h 06m
Length of Day
10h 07m
Full, 100% of the Moon is Illuminated
Nov 6
Full
Nov 6
Full
Nov 14
Last Quarter
Nov 22
New
Nov 29
First Quarter

Hourly Weather History & Observations

Time (PST) Temp. Dew Point Humidity Pressure Visibility Wind Dir Wind Speed Gust Speed Precip Events Conditions
12:38 AM 48.9 °F 48.0 °F 97% 30.07 in 6.0 mi Calm Calm - N/A   Partly Cloudy
12:53 AM 48.0 °F 46.0 °F 93% 30.07 in 9.0 mi Calm Calm - N/A   Mostly Cloudy
1:04 AM 48.9 °F 46.9 °F 93% 30.07 in 9.0 mi Calm Calm - N/A   Scattered Clouds
1:53 AM 46.9 °F 46.0 °F 97% 30.08 in 7.0 mi Calm Calm - N/A   Partly Cloudy
2:08 AM 48.0 °F 46.0 °F 93% 30.08 in 8.0 mi Calm Calm - N/A   Mostly Cloudy
2:53 AM 46.9 °F 46.0 °F 97% 30.07 in 6.0 mi West 4.6 mph - N/A   Overcast
3:53 AM 48.0 °F 46.0 °F 93% 30.06 in 3.0 mi Calm Calm - N/A   Overcast
4:05 AM 48.2 °F 46.4 °F 93% 30.07 in 1.8 mi Calm Calm - N/A   Overcast
4:12 AM 48.0 °F 48.0 °F 100% 30.07 in 0.2 mi Calm Calm - N/A Fog Fog
4:53 AM 48.9 °F 48.0 °F 97% 30.06 in 0.2 mi Calm Calm - N/A Fog Fog
5:34 AM 48.9 °F 48.0 °F 97% 30.08 in 0.2 mi North 4.6 mph - N/A Fog Fog
5:53 AM 48.9 °F 48.9 °F 100% 30.08 in 0.2 mi North 5.8 mph - N/A Fog Fog
6:10 AM 48.9 °F 48.9 °F 100% 30.09 in 0.5 mi NNW 4.6 mph - N/A Fog Fog
6:53 AM 48.9 °F 48.9 °F 100% 30.10 in 0.2 mi Calm Calm - N/A Fog Fog
7:06 AM 48.9 °F 48.9 °F 100% 30.11 in 0.2 mi Calm Calm - N/A Fog Fog
7:24 AM 48.9 °F 48.9 °F 100% 30.10 in 0.2 mi Calm Calm - N/A Fog Fog
7:53 AM 50.0 °F 50.0 °F 100% 30.12 in 0.2 mi Calm Calm - N/A Fog Fog
8:27 AM 50.0 °F 50.0 °F 100% 30.13 in 0.2 mi South 4.6 mph - N/A Fog Fog
8:53 AM 50.0 °F 50.0 °F 100% 30.14 in 0.2 mi South 4.6 mph - N/A Fog Fog
9:24 AM 50.0 °F 50.0 °F 100% 30.15 in 0.2 mi WNW 3.5 mph - N/A Fog Fog
9:39 AM 50.0 °F 50.0 °F 100% 30.15 in 0.5 mi Calm Calm - N/A Fog Fog
9:53 AM 50.0 °F 50.0 °F 100% 30.15 in 0.8 mi NW 3.5 mph - N/A   Overcast
10:42 AM 51.1 °F 51.1 °F 100% 30.16 in 2.0 mi Calm Calm - N/A   Overcast
10:53 AM 52.0 °F 51.1 °F 97% 30.17 in 2.0 mi West 3.5 mph - N/A   Overcast
11:53 AM 55.0 °F 52.0 °F 89% 30.17 in 5.0 mi Calm Calm - N/A   Overcast
12:53 PM 57.0 °F 53.1 °F 87% 30.19 in 6.0 mi Calm Calm - N/A   Overcast
1:53 PM 61.0 °F 52.0 °F 72% 30.19 in 10.0 mi Calm Calm - N/A   Overcast
2:53 PM 61.0 °F 53.1 °F 75% 30.21 in 10.0 mi West 5.8 mph - N/A   Overcast
3:53 PM 60.1 °F 54.0 °F 80% 30.22 in 9.0 mi Calm Calm - N/A   Mostly Cloudy
4:53 PM 59.0 °F 53.1 °F 81% 30.24 in 10.0 mi WNW 8.1 mph - N/A   Overcast
5:53 PM 57.9 °F 53.1 °F 84% 30.25 in 10.0 mi WNW 4.6 mph - N/A   Overcast
6:40 PM 57.0 °F 52.0 °F 83% 30.26 in 10.0 mi NW 5.8 mph - N/A   Overcast
6:53 PM 57.0 °F 52.0 °F 83% 30.27 in 10.0 mi WNW 4.6 mph - N/A   Overcast
7:11 PM 57.0 °F 52.0 °F 83% 30.27 in 10.0 mi NW 5.8 mph - 0.00 in Rain Light Rain
7:53 PM 55.9 °F 53.1 °F 90% 30.28 in 10.0 mi Calm Calm - 0.00 in   Overcast
8:53 PM 55.9 °F 52.0 °F 87% 30.29 in 10.0 mi Calm Calm - N/A   Overcast
9:53 PM 55.0 °F 52.0 °F 89% 30.30 in 10.0 mi Calm Calm - N/A   Overcast
10:53 PM 55.0 °F 52.0 °F 89% 30.31 in 10.0 mi Calm Calm - N/A   Overcast
11:53 PM 54.0 °F 50.0 °F 86% 30.32 in 10.0 mi NW 4.6 mph - N/A   Overcast